KCMH

Port Columbus International

Airport
ICAO code
KCMH
Summary
ICAO Region
NAM
ICAO Territory
Location

Columbus, Ohio,

Coordinates
39° 59' 54" N , 82° 53' 33" W
KCC
Airport LOS
Parallel Runway Operation
Metar
KCMH 220051Z 16005KT 10SM FEW150 OVC200 13/M02 A2998 RMK AO2 SLP157 T01281022

Description

Port Columbus International Airport, commonly shortened to Port Columbus, is an international airport located 10 km east of downtown Columbus, Ohio, USA.

Climatology

Humid “subtropical” climate (Köppen climate classification Cfa) - characterized by hot, humid summers and cool winters. Significant amounts of precipitation occur in all seasons in most areas. Winter rainfall (and sometimes snowfall) is associated with large storms that the westerlies steer from west to east. Most summer rainfall occurs during thunderstorms.

Airport map

Aerial View

SKYbrary Partners:

Safety knowledge contributed by: